Regional Weather Roundup
Issued by NWS Portland, ME

Home | Current Version | Previous Version | Text Only | Print | Product List | Glossary On
Versions: 1 2 3 4 5 6 7 8 9 10 11 12 13 14 15 16 17 18 19 20 21 22 23 24 25 26 27 28 29 30 31 32 33 34 35 36 37 38 39 40 41 42 43 44 45 46 47 48 49 50
000
ASUS41 KGYX 050210
RWRGYX
WEATHER ROUNDUP FOR MAINE AND NEW HAMPSHIRE
NATIONAL WEATHER SERVICE GRAY ME
1000 PM EDT TUE AUG 04 2015

MEZ002-005-006-010-012-015-018-020-021-024-026-027-029-050300-
MAINE

CITY           SKY/WX    TMP DP  RH WIND       PRES   REMARKS
PORTLAND       PTCLDY    63  61  93 W5        29.84S
SANFORD        MOCLDY    66  59  77 W5        29.86F
BAR HARBOR     CLEAR     63  63 100 CALM      29.83S
WISCASSET      PTCLDY    63  61  93 CALM      29.84R
ROCKLAND       CLEAR     61  57  88 CALM      29.82R
FRYEBURG       PTCLDY    62  62 100 CALM      29.86S
LEWISTONAUBURN MOCLDY    63  59  88 S3        29.84S
AUGUSTA        PTCLDY    65  60  84 NW3       29.83S
WATERVILLE     PTCLDY    63  57  82 CALM      29.80S
BANGOR         PTCLDY    61  60  97 CALM      29.83S
GREENVILLE       N/A     60  59  96 CALM      29.82F
MILLINOCKET    PTCLDY    60  58  92 CALM      29.82S
HOULTON        PTCLDY    56  55  97 S6        29.79S FOG
PRESQUE ISLE   MOCLDY    61  55  82 S3        29.78S
FRENCHVILLE    MOCLDY    64  60  87 S6        29.76S
CARIBOU        PTCLDY    63  57  81 SW7       29.77S
$$

NHZ002-005-008-009-011-012-014-050300-
NEW HAMPSHIRE

CITY           SKY/WX    TMP DP  RH WIND       PRES   REMARKS
PORTSMOUTH     CLOUDY    69  66  89 S3        29.85R
ROCHESTER      MOCLDY    66  61  84 CALM      29.85F
NASHUA         PTCLDY    69  63  81 W3        29.88R
MANCHESTER     PTCLDY    73  59  61 N5        29.86R
CONCORD        PTCLDY    68  59  73 CALM      29.88R
LACONIA        PTCLDY    63  59  88 CALM      29.86S
PLYMOUTH       FAIR      63  63 100 CALM      29.87S
BERLIN         CLEAR     58  55  90 CALM      29.88R
WHITEFIELD     CLOUDY    61  59  93 CALM      29.88S
JAFFREY        PTCLDY    64  61  90 CALM      29.92R
KEENE          PTCLDY    66  55  68 CALM      29.90R
LEBANON        PTCLDY    62  60  93 S6        29.88R
MT WASHINGTON  FOG       45  45 100 W35         N/A  VSB 1/16
$$

VTZ005-007-008-050300-
VERMONT

CITY           SKY/WX    TMP DP  RH WIND       PRES   REMARKS
ST JOHNSBURY     N/A     63  60  90 MISG      29.85S
MONTPELIER     MOCLDY    62  59  90 CALM      29.92R
BURLINGTON     PTCLDY    67  56  67 E3        29.85R
$$

MAZ007-012-024-CTZ003-RIZ002-NYZ038-NYZ072-050300-
SOUTHERN NEW ENGLAND AND NY

CITY           SKY/WX    TMP DP  RH WIND       PRES   REMARKS
BOSTON         PTCLDY    72  65  78 SW9       29.87R
WORCESTER      PTCLDY    68  63  84 W9        29.92R
NANTUCKET      CLOUDY    74  72  93 SW12      29.90R FOG
PROVIDENCE     CLEAR     76  63  64 NW5       29.89R
HARTFORD       PTCLDY    70  61  73 CALM      29.90R
ALBANY         MOCLDY    72  55  55 W9        29.92R
NEW YORK CITY  PTCLDY    84  51  31 W5        29.89R
$$

ANZ081-ANZ082-ANZ150-NHZ014-MEZ023>029-050300-
COASTAL MARINE OBSERVATIONS

STATION/POSITION TIME  TEMP    WIND        PRES    WAVE
                       AIR SEA DIR/SP/G            HT/PER
                 (UTC) (F)     (DEG/KT/KT) (MB)    (FT/S)
MOUNT DESERT ROC 0200   60     140/  8/ 10 1010.5S
MATINICUS ROCK   0100   64     230/  3/  4 1009.8R
ISLE OF SHOALS   0100   69     180/  7/  7 1010.3R
JEFFREYS LEDGE   0103      67                N/A     4/ 7
CASHES LEDGE BUO 0150   64                 1010.6R   5/ 8
GEORGES BANK BUO 0150   69 65  190/ 12/ 12 1013.9F   6/ 8
$$

.............KEY..............
   WCI - WIND CHILL
   TC  - TEMPERATURE IN CELSIUS
   VSB - VISIBILITY IN MILES
   HX  - HEAT INDEX
   FAIR- INDICATES FEW OR NO CLOUDS BELOW 12,000 FT, WITH NO
         SIGNIFICANT WEATHER AND/OR OBSTRUCTIONS TO VISIBILITY.





USA.gov is the U.S. government's official web portal to all federal, state and local government web resources and services.